Powrót do katalogu

COSMOS 2251 DEB

AktywnyLEO
NORAD 35989·DEBRIS·🇷🇺 Russia

Wystrzelony Jun 16, 1993 z Plesetsk Cosmodrome

Loading…

Następne Przeloty (najbliższe 24 godziny)

TLE

Starzejące sięSource: Space-Track

Epoka: Sep 12, 2026, 08:44 UTC

1 35989U 93036AWF 26255.36408027  .00000251  00000-0  92522-4 0  9997
2 35989  74.0377 140.5444 0022064 161.4635 198.7327 14.37350231911104

Śledź COSMOS 2251 DEB w czasie rzeczywistym z AllMySat

Download on the App Store